SCP
0 0 0 0 0 0 0 0 0 0 0 0 0 0 0 0 0 0 0 0 0 0 0 0 0 0 0 0 0 0 0 0 0 0 0 0 0 0 0 0 0 0 0 0
0 0 0 0 0 0 0 0 0 0 0 0 0 0 0 0 0 0 0 0 0 0 0 0 0 0 0 0 0 0 0 0 0 0 0 0 0 0 0 0 0 0 0 0
0 0 0 0 0 0 0 0 0 0 0 0 0 0 0 0 0 0 0 0 0 0 0 0 0 0 0 0 0 0 0 0 0 0 0 0 0 0 0 0 0 0 0 0
0 0 0 0 0 0 0 0 0 0 0 0 0 0 0 0 0 0 0 0 0 0 0 0 0 0 0 0 0 0 0 0 0 0 0 0 0 0 0 0 0 0 0 0
0 0 0 0 0 0 0 0 0 0 0 0 0 0 0 0 0 0 0 0 0 0 0 0 0 0 0 0 0 0 0 0 0 0 0 0 0 0 0 0 0 0 0 0
0 0 0 0 0 0 0 0 0 0 0 0 0 0 0 0 0 0 0 0 0 0 0 0 0 0 0 0 0 0 0 0 0 0 0 0 0 0 0 0 0 0 0 0
0 0 0 0 0 0 0 0 0 0 0 0 0 0 0 0 0 0 0 0 0 0 0 0 0 0 0 0 0 0 0 0 0 0 0 0 0 0 0 0 0 0 0 0
0 0 0 0 0 0 0 0 0 0 0 0 0 0 0 0 0 0 0 0 0 0 0 0 0 0 0 0 0 0 0 0 0 0 0 0 0 0 0 0 0 0 0 0
0 0 0 0 0 0 0 0 0 0 0 0 0 0 0 0 0 0 0 0 0 0 0 0 0 0 0 0 0 0 0 0 0 0 0 0 0 0 0 0 0 0 0 0
0 0 0 0 0 0 0 0 0 0 0 0 0 0 0 0 0 0 0 0 0 0 0 0 0 0 0 0 0 0 0 0 0 0 0 0 0 0 0 0 0 0 0 0
0 0 0 0 0 0 0 0 0 0 0 0 0 0 0 0 0 0 0 0 0 0 0 0 0 0 0 0 0 0 0 0 0 0 0 0 0 0 0 0 0 0 0 0
0 0 0 0 0 0 0 0 0 0 0 0 0 0 0 0 0 0 0 0 0 0 0 0 0 0 0 0 0 0 0 0 0 0 0 0 0 0 0 0 0 0 0 0
0 0 0 0 0 0 0 0 0 0 0 0 0 0 0 0 0 0 0 0 0 0 0 0 0 0 0 0 0 0 0 0 0 0 0 0 0 0 0 0 0 0 0 0
0 0 0 0 0 0 0 0 0 0 0 0 0 0 0 0 0 0 0 0 0 0 0 0 0 0 0 0 0 0 0 0 0 0 0 0 0 0 0 0 0 0 0 0
0 0 0 0 0 0 0 0 0 0 0 0 0 0 0 0 0 0 0 0 0 0 0 0 0 0 0 0 0 0 0 0 0 0 0 0 0 0 0 0 0 0 0 0
0 0 0 0 0 0 0 0 0 0 0 0 0 0 0 0 0 0 0 0 0 0 0 0 0 0 0 0 0 0 0 0 0 0 0 0 0 0 0 0 0 0 0 0
0 0 0 0 0 0 0 0 0 0 0 0 0 0 0 0 0 0 0 0 0 0 0 0 0 0 0 0 0 0 0 0 0 0 0 0 0 0 0 0 0 0 0 0
0 0 0 0 0 0 0 0 0 0 0 0 0 0 0 0 0 0 0 0 0 0 0 0 0 0 0 0 0 0 0 0 0 0 0 0 0 0 0 0 0 0 0 0
0 0 0 0 0 0 0 0 0 0 0 0 0 0 0 0 0 0 0 0 0 0 0 0 0 0 0 0 0 0 0 0 0 0 0 0 0 0 0 0 0 0 0 0
0 0 0 0 0 0 0 0 0 0 0 0 0 0 0 0 0 0 0 0 0 0 0 0 0 0 0 0 0 0 0 0 0 0 0 0 0 0 0 0 0 0 0 0
0 0 0 0 0 0 0 0 0 0 0 0 0 0 0 0 0 0 0 0 0 0 0 0 0 0 0 0 0 0 0 0 0 0 0 0 0 0 0 0 0 0 0 0
0 0 0 0 0 0 0 0 0 0 0 0 0 0 0 0 0 0 0 0 0 0 0 0 0 0 0 0 0 0 0 0 0 0 0 0 0 0 0 0 0 0 0 0
0 0 0 0 0 0 0 0 0 0 0 0 0 0 0 0 0 0 0 0 0 0 0 0 0 0 0 0 0 0 0 0 0 0 0 0 0 0 0 0 0 0 0 0
0 0 0 0 0 0 0 0 0 0 0 0 0 0 0 0 0 0 0 0 0 0 0 0 0 0 0 0 0 0 0 0 0 0 0 0 0 0 0 0 0 0 0 0
0 0 -0 -0 0 0 0 0 0 0 0 0 0 0 0 0 0 0 0 0 0 0 0 0 0 0 0 0 0 0 0 0 0 0 0 0 0 0 0 0 0 0 0 0
0 -0 -0 -0 -0 0 0 0 0 0 0 0 0 0 0 0 0 0 0 0 0 0 0 0 0 0 0 0 0 0 0 0 0 0 0 0 0 0 0 0 0 0 0 0
0 -0 -0 -0 -0 0 0 0 0 0 0 0 0 0 0 0 0 0 0 0 0 0 0 0 0 0 0 0 0 0 0 0 0 0 0 0 0 0 0 0 0 0 0 0
Wind_Speed
4 2 4 5 7 9 10 8 6 4 5 6 7 9 10 11 12 12 11 11 11 10 8 7 7 6 5 5 4 4 4 3 2 2 2 1 1 1 1 1 1 1 1 2
5 4 6 6 7 9 9 8 7 6 5 3 6 8 10 12 12 12 12 12 11 10 9 8 7 6 6 5 5 4 4 3 2 2 2 1 1 1 1 1 1 1 1 2
5 5 6 8 8 10 9 8 8 8 5 7 9 10 11 12 12 12 11 11 10 10 9 8 8 7 7 6 5 5 4 3 2 2 2 1 1 1 0 0 1 1 2 2
4 6 9 1 1 5 8 7 7 5 5 9 9 9 8 9 11 11 10 10 9 9 8 8 7 7 6 6 5 5 4 3 2 1 1 1 0 0 1 1 1 1 2 2
5 7 6 4 4 5 7 6 7 8 7 8 9 9 6 7 8 9 9 9 8 8 8 8 8 7 7 6 5 4 4 3 2 2 1 1 0 0 1 1 1 1 1 2
6 7 7 2 4 3 5 5 5 8 10 11 13 9 7 8 8 8 8 8 8 8 8 8 8 7 7 6 5 4 3 2 2 2 1 1 0 1 1 1 1 2 2 2
9 8 5 1 4 6 7 2 6 9 11 13 11 4 7 10 9 9 9 9 9 9 8 7 7 7 7 6 4 4 3 3 2 2 1 1 0 0 1 1 2 2 2 2
7 8 5 5 7 6 0 4 5 8 10 10 7 6 10 10 10 10 10 9 9 8 7 7 7 7 6 5 4 4 3 3 2 2 1 1 0 1 1 1 2 2 3 2
5 2 3 4 3 1 1 2 4 6 8 9 8 8 10 10 10 10 10 9 8 8 8 7 6 5 6 5 4 4 3 3 2 2 1 0 0 1 1 2 2 3 3 3
5 4 2 3 2 2 2 2 3 5 8 9 9 10 10 9 9 10 9 9 8 9 8 7 6 4 4 5 4 4 3 2 2 1 1 0 1 1 2 2 3 3 4 4
6 4 2 3 4 3 2 2 4 6 8 9 9 10 10 9 9 9 9 8 8 8 8 7 6 5 4 4 4 3 3 2 1 0 0 1 1 2 3 3 3 4 5 5
6 6 5 3 3 5 4 4 5 7 8 8 9 10 10 9 9 9 9 8 8 8 7 7 6 5 4 3 3 3 2 1 1 1 1 1 2 2 1 3 3 4 6 7
4 2 2 2 2 5 5 5 6 7 9 9 9 9 10 9 9 9 9 9 8 8 7 7 6 5 4 3 2 2 1 1 1 1 1 2 3 3 3 2 4 5 5 6
3 3 3 4 4 4 5 6 6 7 7 8 8 9 9 9 9 9 8 8 8 7 7 6 5 4 3 3 2 1 1 0 1 2 2 3 3 3 4 5 5 4 4 5
6 5 3 3 5 5 6 7 8 8 8 8 9 9 10 10 9 8 7 7 7 7 6 5 5 4 3 2 2 2 1 1 1 2 2 3 3 4 4 5 6 6 6 5
6 5 6 6 7 7 8 9 9 9 9 9 9 9 9 9 8 8 7 7 7 7 5 5 4 3 3 2 2 1 1 1 2 3 3 3 4 4 5 5 6 6 6 6
8 8 8 8 8 8 8 8 8 8 9 9 9 9 9 9 8 8 7 6 5 5 5 4 3 3 3 2 2 2 2 2 3 4 3 4 4 5 6 6 6 7 7 6
7 7 7 8 9 9 8 8 8 8 8 9 9 9 9 9 8 8 7 6 5 4 4 3 3 3 3 2 2 2 2 3 3 4 4 4 5 6 6 7 8 9 8 7
6 5 6 6 7 8 8 8 8 8 8 9 9 9 8 8 7 7 7 6 6 5 3 3 3 3 3 2 2 3 3 4 4 4 5 5 6 6 7 7 8 8 9 8
5 5 6 6 6 7 7 7 8 8 8 9 9 8 8 7 7 7 6 5 3 2 3 3 3 3 3 2 3 3 4 5 5 5 6 6 7 7 7 8 9 9 9 9
6 6 6 6 6 6 7 8 8 8 8 8 8 8 7 7 7 6 5 4 3 2 2 3 3 2 2 2 4 4 4 5 6 6 6 7 7 8 8 9 9 9 9 9
6 6 6 7 7 7 7 7 8 8 8 8 8 7 7 6 5 4 4 3 3 3 2 2 2 1 2 4 4 4 5 5 6 6 6 7 8 8 9 9 9 9 9 10
5 6 7 7 7 7 7 7 7 8 8 8 8 8 7 5 4 4 3 2 3 3 2 2 1 2 4 5 4 4 5 6 6 7 7 7 8 8 9 10 9 9 10 10
5 6 6 6 7 7 7 7 7 6 6 6 6 6 5 4 3 3 2 3 3 3 3 2 3 4 6 5 4 4 5 6 6 7 7 7 8 8 8 9 9 9 10 12
6 6 7 7 7 6 6 6 6 6 5 4 4 4 3 3 2 2 2 3 4 4 3 3 4 5 5 4 4 5 5 5 6 7 7 8 8 8 9 9 9 10 10 10
6 5 5 5 5 4 5 5 5 4 4 4 3 2 2 2 2 2 2 3 3 3 3 2 3 4 4 4 4 5 5 6 6 6 7 8 9 9 9 9 12 10 10 10
6 5 4 4 4 5 5 5 5 5 4 4 3 2 2 2 2 2 2 2 2 2 2 2 3 3 3 4 4 5 5 5 6 6 7 7 8 8 9 11 9 9 9 9
Wind_Direction
255 233 218 224 214 208 224 246 254 243 224 204 186 177 168 162 160 161 162 163 164 163 159 157 154 151 146 145 145 147 147 143 133 126 118 112 94 93 75 26 357 11 5 6
219 208 216 232 230 220 227 238 240 237 242 195 173 166 165 166 164 168 170 172 171 166 163 164 160 155 151 152 149 148 144 132 125 127 118 114 103 73 74 35 342 350 342 359
221 189 217 234 229 215 212 216 220 224 212 165 169 172 174 172 170 173 173 172 173 171 168 166 160 157 156 154 149 150 143 132 137 137 123 124 128 95 80 290 348 333 333 343
225 206 234 224 138 215 218 225 227 226 185 179 174 168 168 171 172 174 173 172 171 170 163 158 152 150 147 144 148 149 142 137 132 133 127 125 96 34 311 332 355 324 337 335
231 237 248 220 194 196 211 225 213 203 182 164 149 148 162 173 176 174 169 165 160 160 153 151 149 148 147 147 147 144 139 139 134 138 135 130 104 324 307 316 321 304 321 320
228 240 246 218 143 179 218 220 187 189 173 161 164 178 171 164 165 159 151 147 146 148 148 148 148 149 152 150 147 144 141 139 127 127 140 148 36 333 326 308 294 292 304 305
234 243 251 96 138 177 213 185 157 175 168 168 183 175 135 147 152 148 144 143 144 147 147 146 149 154 155 149 143 132 135 133 130 135 147 134 75 327 302 302 300 298 301 302
223 233 232 132 163 200 335 74 146 166 169 172 160 121 129 141 144 144 143 143 146 145 139 142 152 159 151 142 129 125 128 130 134 133 127 127 102 324 307 306 293 295 295 299
231 246 50 160 195 307 18 140 149 167 166 158 146 140 141 144 144 144 144 145 148 145 138 139 149 159 147 135 137 139 141 140 139 137 127 129 226 279 291 296 299 303 300 299
224 231 221 207 218 229 218 194 173 167 163 161 154 148 147 145 144 145 145 146 148 147 144 140 140 139 129 132 148 155 155 151 150 157 147 176 290 288 295 301 302 303 304 303
225 219 206 213 210 206 178 157 153 156 161 163 154 152 151 148 148 146 144 144 148 150 146 142 140 134 128 139 156 163 160 155 152 139 297 293 291 314 304 314 324 304 304 303
227 214 218 206 189 193 183 172 163 156 156 158 158 154 150 148 147 147 147 146 148 149 146 142 141 135 133 144 164 167 158 157 177 229 268 279 284 279 257 272 295 281 285 292
258 243 237 191 180 186 186 173 166 164 161 158 156 154 150 146 147 148 149 149 150 149 147 143 141 139 138 150 164 164 165 188 237 272 280 285 292 296 297 264 237 248 262 275
200 176 189 192 180 174 170 161 156 154 153 153 151 151 148 146 147 151 152 150 148 146 145 143 141 138 141 153 165 181 197 254 275 277 284 287 295 298 299 302 303 299 275 264
209 216 202 165 156 157 154 150 150 151 151 150 151 152 151 151 151 149 146 145 146 147 147 148 148 146 149 163 177 198 233 267 284 292 284 286 290 292 293 294 296 300 304 300
180 174 172 170 165 162 161 162 159 158 158 155 156 156 154 150 144 143 146 151 155 155 156 158 158 156 164 176 187 212 245 303 288 283 282 284 287 289 291 293 294 298 301 308
170 174 178 179 176 174 173 172 167 162 161 160 159 154 150 147 146 147 150 156 157 156 160 162 157 157 172 187 203 223 238 236 250 268 281 290 292 292 293 293 293 296 297 303
194 188 184 181 178 177 176 172 166 165 164 159 154 154 156 158 159 157 155 152 150 153 160 160 156 171 185 201 226 243 250 261 268 278 285 288 294 294 294 294 295 296 297 296
189 181 177 177 177 176 172 170 166 164 161 158 160 162 163 162 159 159 160 162 164 168 172 160 159 193 198 209 246 250 262 272 277 281 283 284 282 287 291 293 295 296 297 298
178 173 167 165 169 172 170 166 163 161 162 164 164 162 162 161 160 164 170 175 180 175 172 177 198 211 221 220 242 256 264 272 278 282 284 285 286 289 292 294 295 296 296 297
172 167 165 165 166 169 168 166 164 163 164 167 170 169 166 163 166 169 173 178 174 159 171 197 218 224 238 253 247 258 265 273 279 282 284 286 288 290 292 294 294 294 296 297
169 165 164 161 160 160 162 165 164 164 164 166 168 166 164 165 170 178 187 187 169 163 195 214 227 246 270 267 255 259 266 274 279 282 285 288 289 292 293 296 296 297 297 297
166 164 163 162 160 155 154 159 161 164 167 168 170 171 172 171 177 183 192 174 167 184 220 225 229 239 258 257 257 261 268 275 280 284 287 288 290 292 294 295 296 297 297 297
163 162 158 155 154 155 159 159 158 159 161 163 169 170 168 167 180 191 174 155 170 196 231 217 225 244 256 255 256 263 272 279 283 286 289 290 291 293 294 294 295 295 295 296
167 163 159 159 163 164 159 154 154 154 154 154 157 161 165 170 176 174 172 182 186 210 228 225 234 249 256 262 266 273 278 282 287 291 288 290 293 294 293 293 293 293 294 293
168 168 169 172 165 157 157 160 161 160 158 153 151 155 156 152 157 169 180 190 201 225 241 240 239 248 260 271 275 278 281 282 281 283 289 293 293 293 291 292 294 293 294 294
163 161 162 163 163 166 167 169 170 170 169 166 163 167 167 165 172 180 186 195 207 227 242 249 253 259 267 272 275 278 282 287 290 291 292 292 293 293 293 294 295 295 295 294